EZY72RQ EGAA-EGKK

Flight info

Callsign EZY72RQ
Flight time 1h 4m
Altitude 33000
Route LISBO DCT RINGA DCT BABGU DCT ETIGA DCT INKOB Q39 NOMSU UQ4 WAL L151 DISIT
Aircraft A21N/M-SDE2E3FGHIJ1RWXYZ/LB1G1

Departure

Time 2026-05-05 18:46
Airport Belfast International Airport (EGAA)

Arrival

Time 2026-05-05 19:50
Airport London Gatwick Airport (EGKK)
Time Latitude Longitude Altitude Speed Heading
2026-05-05 17:52 54.66069 -6.21549 280 ft 0 kts 335°
2026-05-05 18:36 54.66057 -6.21540 277 ft 3 kts 335°
2026-05-05 18:37 54.66038 -6.21525 277 ft 3 kts 336°
2026-05-05 18:37 54.66020 -6.21512 277 ft 3 kts 339°
2026-05-05 18:37 54.66001 -6.21500 277 ft 3 kts 343°
2026-05-05 18:37 54.65981 -6.21491 277 ft 3 kts 353°
2026-05-05 18:38 54.65963 -6.21492 277 ft 3 kts 23°
2026-05-05 18:38 54.65953 -6.21503 277 ft 1 kts 64°
2026-05-05 18:38 54.65953 -6.21504 277 ft 0 kts 65°
2026-05-05 18:41 54.65955 -6.21495 277 ft 2 kts 65°
2026-05-05 18:42 54.65966 -6.21456 277 ft 5 kts 64°
2026-05-05 18:42 54.65986 -6.21384 277 ft 8 kts 65°
2026-05-05 18:42 54.66014 -6.21279 277 ft 11 kts 64°
2026-05-05 18:42 54.66051 -6.21144 277 ft 14 kts 65°
2026-05-05 18:43 54.66095 -6.20981 277 ft 16 kts 65°
2026-05-05 18:43 54.66146 -6.20790 277 ft 19 kts 65°
2026-05-05 18:43 54.66204 -6.20575 277 ft 21 kts 65°
2026-05-05 18:43 54.66269 -6.20335 277 ft 23 kts 65°
2026-05-05 18:44 54.66335 -6.20090 277 ft 15 kts 65°
2026-05-05 18:44 54.66383 -6.19911 277 ft 18 kts 65°
2026-05-05 18:44 54.66386 -6.19763 277 ft 14 kts 113°
2026-05-05 18:44 54.66305 -6.19665 277 ft 10 kts 158°
2026-05-05 18:45 54.66247 -6.19738 277 ft 13 kts 242°
2026-05-05 18:45 54.66220 -6.19831 277 ft 8 kts 244°
2026-05-05 18:45 54.66142 -6.20125 277 ft 59 kts 245°
2026-05-05 18:45 54.65870 -6.21133 277 ft 123 kts 244°
2026-05-05 18:46 54.65441 -6.22726 352 ft 159 kts 249°
2026-05-05 18:46 54.64959 -6.24366 924 ft 153 kts 250°
2026-05-05 18:46 54.64496 -6.26098 1319 ft 168 kts 250°
2026-05-05 18:46 54.63968 -6.28047 1693 ft 190 kts 248°
2026-05-05 18:47 54.63334 -6.30180 2211 ft 214 kts 239°
2026-05-05 18:47 54.62078 -6.31858 2591 ft 249 kts 200°
2026-05-05 18:47 54.60296 -6.32054 3161 ft 268 kts 165°
2026-05-05 18:47 54.58673 -6.30518 4010 ft 271 kts 133°
2026-05-05 18:48 54.57716 -6.27776 4964 ft 269 kts 109°
2026-05-05 18:48 54.57066 -6.24761 6036 ft 267 kts 109°
2026-05-05 18:48 54.56336 -6.21786 6948 ft 272 kts 112°
2026-05-05 18:48 54.55523 -6.18854 7698 ft 281 kts 115°
2026-05-05 18:49 54.54616 -6.15821 8547 ft 288 kts 117°
2026-05-05 18:49 54.53658 -6.12756 9387 ft 295 kts 118°
2026-05-05 18:49 54.52658 -6.09610 10210 ft 303 kts 117°
2026-05-05 18:49 54.51765 -6.06207 10692 ft 322 kts 112°
2026-05-05 18:50 54.50894 -6.02538 11198 ft 338 kts 112°
2026-05-05 18:50 54.50007 -5.98811 11974 ft 344 kts 112°
2026-05-05 18:50 54.49085 -5.94971 12805 ft 349 kts 112°
2026-05-05 18:50 54.48134 -5.91037 13663 ft 354 kts 112°
2026-05-05 18:51 54.47191 -5.87148 14406 ft 359 kts 113°
2026-05-05 18:51 54.46223 -5.83168 15151 ft 363 kts 113°
2026-05-05 18:51 54.45242 -5.79145 15904 ft 367 kts 113°
2026-05-05 18:51 54.44248 -5.75080 16645 ft 371 kts 113°
2026-05-05 18:52 54.43240 -5.70966 17409 ft 375 kts 113°
2026-05-05 18:52 54.42211 -5.66767 18153 ft 379 kts 113°
2026-05-05 18:52 54.41182 -5.62576 18818 ft 382 kts 113°
2026-05-05 18:52 54.40130 -5.58363 19446 ft 386 kts 115°
2026-05-05 18:53 54.38794 -5.54439 20059 ft 388 kts 125°
2026-05-05 18:53 54.37246 -5.50616 20678 ft 391 kts 126°
2026-05-05 18:53 54.35670 -5.46782 21281 ft 395 kts 126°
2026-05-05 18:53 54.34087 -5.42916 21883 ft 398 kts 126°
2026-05-05 18:54 54.32493 -5.39016 22464 ft 401 kts 126°
2026-05-05 18:54 54.30889 -5.35083 23062 ft 405 kts 126°
2026-05-05 18:54 54.29271 -5.31115 23621 ft 408 kts 126°
2026-05-05 18:54 54.27612 -5.27142 24116 ft 411 kts 129°
2026-05-05 18:55 54.25817 -5.23324 24606 ft 413 kts 131°
2026-05-05 18:55 54.23985 -5.19508 25083 ft 416 kts 131°
2026-05-05 18:55 54.22140 -5.15683 25560 ft 419 kts 131°
2026-05-05 18:55 54.20280 -5.11824 26019 ft 421 kts 131°
2026-05-05 18:56 54.18413 -5.07949 26490 ft 424 kts 131°
2026-05-05 18:56 54.16531 -5.04052 26924 ft 427 kts 131°
2026-05-05 18:56 54.14636 -5.00136 27358 ft 430 kts 131°
2026-05-05 18:56 54.12726 -4.96190 27787 ft 432 kts 131°
2026-05-05 18:57 54.10806 -4.92231 28192 ft 435 kts 131°
2026-05-05 18:57 54.08872 -4.88248 28596 ft 437 kts 131°
2026-05-05 18:57 54.06928 -4.84254 28983 ft 440 kts 131°
2026-05-05 18:57 54.04972 -4.80246 29373 ft 442 kts 131°
2026-05-05 18:58 54.03071 -4.76101 29757 ft 445 kts 129°
2026-05-05 18:58 54.01201 -4.71899 30135 ft 447 kts 129°
2026-05-05 18:58 53.99316 -4.67660 30452 ft 449 kts 129°
2026-05-05 18:58 53.97431 -4.63426 30763 ft 451 kts 129°
2026-05-05 18:59 53.95529 -4.59172 31153 ft 451 kts 129°
2026-05-05 18:59 53.93631 -4.54934 31587 ft 450 kts 129°
2026-05-05 18:59 53.91743 -4.50722 31980 ft 449 kts 129°
2026-05-05 18:59 53.89851 -4.46508 32383 ft 448 kts 129°
2026-05-05 19:00 53.87968 -4.42326 32777 ft 447 kts 129°
2026-05-05 19:00 53.86138 -4.38051 33040 ft 448 kts 126°
2026-05-05 19:00 53.82594 -4.29388 33062 ft 447 kts 126°
2026-05-05 19:01 53.79042 -4.20742 33038 ft 447 kts 126°
2026-05-05 19:01 53.75500 -4.12114 33032 ft 447 kts 126°
2026-05-05 19:02 53.71953 -4.03498 33032 ft 446 kts 127°
2026-05-05 19:02 53.68403 -3.94912 33030 ft 446 kts 127°
2026-05-05 19:03 53.64842 -3.86345 33027 ft 446 kts 127°
2026-05-05 19:03 53.61880 -3.79246 33031 ft 446 kts 127°
2026-05-05 19:04 53.57711 -3.69286 33027 ft 445 kts 127°
2026-05-05 19:04 53.54133 -3.60774 33032 ft 445 kts 127°
2026-05-05 19:05 53.50565 -3.52305 33029 ft 444 kts 127°
2026-05-05 19:05 53.47040 -3.43771 33019 ft 445 kts 122°
2026-05-05 19:06 53.44459 -3.34308 33031 ft 447 kts 114°
2026-05-05 19:06 53.42051 -3.24697 33037 ft 446 kts 115°
2026-05-05 19:07 53.39918 -3.16845 33033 ft 444 kts 122°
2026-05-05 19:07 53.37389 -3.11534 33038 ft 440 kts 140°
2026-05-05 19:07 53.34971 -3.08443 33052 ft 437 kts 148°
2026-05-05 19:08 53.29911 -3.02811 33061 ft 437 kts 148°
2026-05-05 19:08 53.24868 -2.97142 33053 ft 437 kts 148°
2026-05-05 19:09 53.19839 -2.91446 33051 ft 437 kts 147°
2026-05-05 19:09 53.14793 -2.85742 33054 ft 437 kts 147°
2026-05-05 19:10 53.09764 -2.80070 33046 ft 437 kts 147°
2026-05-05 19:10 53.04719 -2.74400 33038 ft 438 kts 147°
2026-05-05 19:11 52.99671 -2.68743 33021 ft 438 kts 147°
2026-05-05 19:11 52.94606 -2.63089 33022 ft 439 kts 147°
2026-05-05 19:12 52.89539 -2.57431 33021 ft 440 kts 147°
2026-05-05 19:12 52.84459 -2.51789 33021 ft 439 kts 147°
2026-05-05 19:13 52.80248 -2.47122 33025 ft 440 kts 147°
2026-05-05 19:13 52.75200 -2.41534 33005 ft 431 kts 147°
2026-05-05 19:14 52.70162 -2.35984 32989 ft 434 kts 147°
2026-05-05 19:14 52.67667 -2.33239 32253 ft 434 kts 147°
2026-05-05 19:14 52.65148 -2.30471 31634 ft 431 kts 147°
2026-05-05 19:15 52.62678 -2.27762 31158 ft 425 kts 147°
2026-05-05 19:15 52.60238 -2.25090 30667 ft 420 kts 147°
2026-05-05 19:15 52.57809 -2.22434 30186 ft 415 kts 148°
2026-05-05 19:15 52.55419 -2.19821 29603 ft 410 kts 148°
2026-05-05 19:16 52.53059 -2.17243 29021 ft 406 kts 148°
2026-05-05 19:16 52.50711 -2.14687 28482 ft 401 kts 148°
2026-05-05 19:16 52.48405 -2.12179 27987 ft 396 kts 148°
2026-05-05 19:16 52.46123 -2.09697 27503 ft 391 kts 148°
2026-05-05 19:17 52.43873 -2.07255 27049 ft 385 kts 148°
2026-05-05 19:17 52.41653 -2.04846 26582 ft 380 kts 149°
2026-05-05 19:17 52.39462 -2.02472 26123 ft 376 kts 149°
2026-05-05 19:17 52.37298 -2.00127 25686 ft 371 kts 149°
2026-05-05 19:18 52.35156 -1.97811 25267 ft 366 kts 149°
2026-05-05 19:18 52.33044 -1.95531 24837 ft 362 kts 149°
2026-05-05 19:18 52.30943 -1.93268 24391 ft 361 kts 149°
2026-05-05 19:18 52.28850 -1.91018 23958 ft 360 kts 149°
2026-05-05 19:19 52.26755 -1.88769 23525 ft 359 kts 149°
2026-05-05 19:19 52.24671 -1.86528 23028 ft 358 kts 149°
2026-05-05 19:19 52.22594 -1.84301 22572 ft 357 kts 149°
2026-05-05 19:19 52.20521 -1.82079 22112 ft 355 kts 149°
2026-05-05 19:20 52.18464 -1.79880 21665 ft 353 kts 149°
2026-05-05 19:20 52.16416 -1.77691 21215 ft 352 kts 149°
2026-05-05 19:20 52.14368 -1.75505 20780 ft 351 kts 148°
2026-05-05 19:20 52.12333 -1.73336 20367 ft 349 kts 148°
2026-05-05 19:21 52.10323 -1.71194 20028 ft 343 kts 148°
2026-05-05 19:21 52.08332 -1.69072 19950 ft 339 kts 148°
2026-05-05 19:21 52.06354 -1.66969 19895 ft 339 kts 148°
2026-05-05 19:21 52.04384 -1.64879 19703 ft 338 kts 148°
2026-05-05 19:22 52.02445 -1.62823 19458 ft 337 kts 148°
2026-05-05 19:22 52.00481 -1.60741 19236 ft 336 kts 148°
2026-05-05 19:22 51.98527 -1.58669 18969 ft 335 kts 148°
2026-05-05 19:22 51.96578 -1.56607 18632 ft 334 kts 148°
2026-05-05 19:23 51.94634 -1.54553 18274 ft 334 kts 148°
2026-05-05 19:23 51.92687 -1.52502 17871 ft 334 kts 148°
2026-05-05 19:23 51.90732 -1.50451 17477 ft 334 kts 148°
2026-05-05 19:23 51.88785 -1.48408 17092 ft 334 kts 148°
2026-05-05 19:24 51.86833 -1.46358 16708 ft 334 kts 148°
2026-05-05 19:24 51.84889 -1.44309 16348 ft 334 kts 148°
2026-05-05 19:24 51.82948 -1.42266 15999 ft 333 kts 148°
2026-05-05 19:24 51.81012 -1.40233 15656 ft 332 kts 148°
2026-05-05 19:25 51.79079 -1.38203 15313 ft 331 kts 148°
2026-05-05 19:25 51.77152 -1.36184 14999 ft 327 kts 148°
2026-05-05 19:25 51.75280 -1.34223 14914 ft 318 kts 148°
2026-05-05 19:25 51.73426 -1.32286 14929 ft 317 kts 148°
2026-05-05 19:26 51.71571 -1.30349 14944 ft 318 kts 148°
2026-05-05 19:26 51.69716 -1.28417 14952 ft 318 kts 148°
2026-05-05 19:26 51.67865 -1.26490 14956 ft 317 kts 148°
2026-05-05 19:26 51.66009 -1.24560 14963 ft 317 kts 148°
2026-05-05 19:27 51.64158 -1.22639 14963 ft 317 kts 148°
2026-05-05 19:27 51.62304 -1.20714 14963 ft 318 kts 148°
2026-05-05 19:27 51.60445 -1.18785 14962 ft 317 kts 148°
2026-05-05 19:27 51.58595 -1.16868 14965 ft 318 kts 148°
2026-05-05 19:28 51.56734 -1.14946 14963 ft 317 kts 148°
2026-05-05 19:28 51.54882 -1.13029 14964 ft 317 kts 148°
2026-05-05 19:28 51.53023 -1.11105 14965 ft 317 kts 148°
2026-05-05 19:28 51.51172 -1.09194 14963 ft 318 kts 148°
2026-05-05 19:29 51.49309 -1.07272 14962 ft 318 kts 148°
2026-05-05 19:29 51.47445 -1.05356 14958 ft 318 kts 148°
2026-05-05 19:29 51.45600 -1.03461 14647 ft 315 kts 148°
2026-05-05 19:29 51.43728 -1.01536 13923 ft 325 kts 148°
2026-05-05 19:30 51.41817 -0.99579 13146 ft 333 kts 148°
2026-05-05 19:30 51.39856 -0.97572 12786 ft 327 kts 148°
2026-05-05 19:30 51.37963 -0.95630 12196 ft 329 kts 147°
2026-05-05 19:30 51.36038 -0.93651 11779 ft 326 kts 147°
2026-05-05 19:31 51.34117 -0.91682 11381 ft 322 kts 147°
2026-05-05 19:31 51.32224 -0.89751 10880 ft 322 kts 147°
2026-05-05 19:31 51.30366 -0.87856 10530 ft 318 kts 147°
2026-05-05 19:31 51.28518 -0.85973 10261 ft 312 kts 147°
2026-05-05 19:32 51.26686 -0.84104 10006 ft 305 kts 147°
2026-05-05 19:32 51.24925 -0.82309 9830 ft 297 kts 147°
2026-05-05 19:32 51.23220 -0.80573 9682 ft 291 kts 147°
2026-05-05 19:32 51.21538 -0.78863 9525 ft 284 kts 147°
2026-05-05 19:33 51.19888 -0.77187 9379 ft 277 kts 147°
2026-05-05 19:33 51.18278 -0.75553 9245 ft 274 kts 147°
2026-05-05 19:33 51.16668 -0.73923 9090 ft 274 kts 147°
2026-05-05 19:33 51.15065 -0.72301 8957 ft 273 kts 147°
2026-05-05 19:34 51.13460 -0.70676 8805 ft 273 kts 147°
2026-05-05 19:34 51.11864 -0.69064 8654 ft 271 kts 147°
2026-05-05 19:34 51.10271 -0.67455 8498 ft 270 kts 147°
2026-05-05 19:35 51.07484 -0.64639 8232 ft 269 kts 146°
2026-05-05 19:35 51.06501 -0.63644 8140 ft 269 kts 146°
2026-05-05 19:35 51.05113 -0.61680 7947 ft 272 kts 123°
2026-05-05 19:35 51.04168 -0.58975 7927 ft 284 kts 114°
2026-05-05 19:36 51.03315 -0.56134 7927 ft 284 kts 114°
2026-05-05 19:36 51.02460 -0.53306 7933 ft 284 kts 114°
2026-05-05 19:36 51.01596 -0.50487 7929 ft 284 kts 114°
2026-05-05 19:36 51.00719 -0.47661 7929 ft 284 kts 114°
2026-05-05 19:37 50.99842 -0.44853 7930 ft 284 kts 115°
2026-05-05 19:37 50.98964 -0.42052 7933 ft 284 kts 115°
2026-05-05 19:37 50.98081 -0.39244 7935 ft 284 kts 115°
2026-05-05 19:37 50.97181 -0.36451 7935 ft 284 kts 116°
2026-05-05 19:38 50.96275 -0.33698 7742 ft 279 kts 116°
2026-05-05 19:38 50.95371 -0.30971 7314 ft 279 kts 116°
2026-05-05 19:38 50.94461 -0.28249 6929 ft 279 kts 116°
2026-05-05 19:38 50.93550 -0.25543 6557 ft 278 kts 116°
2026-05-05 19:39 50.92655 -0.22841 6173 ft 276 kts 111°
2026-05-05 19:39 50.92287 -0.19928 5970 ft 269 kts 84°
2026-05-05 19:39 50.92758 -0.17116 5966 ft 264 kts 59°
2026-05-05 19:39 50.93942 -0.14959 5978 ft 259 kts 33°
2026-05-05 19:40 50.95590 -0.13875 5974 ft 256 kts
2026-05-05 19:40 50.97332 -0.14018 5635 ft 252 kts 344°
2026-05-05 19:40 50.98824 -0.15351 5181 ft 256 kts 319°
2026-05-05 19:40 50.99825 -0.17700 4747 ft 262 kts 293°
2026-05-05 19:41 51.00246 -0.20522 4354 ft 263 kts 282°
2026-05-05 19:41 51.00523 -0.23394 3957 ft 263 kts 281°
2026-05-05 19:41 51.00791 -0.26260 3567 ft 263 kts 281°
2026-05-05 19:41 51.01066 -0.29125 3199 ft 262 kts 281°
2026-05-05 19:42 51.01344 -0.31985 2982 ft 262 kts 281°
2026-05-05 19:42 51.01632 -0.34842 2955 ft 263 kts 281°
2026-05-05 19:42 51.01922 -0.37705 2968 ft 262 kts 281°
2026-05-05 19:42 51.02213 -0.40569 2980 ft 262 kts 281°
2026-05-05 19:43 51.02497 -0.43374 2979 ft 249 kts 281°
2026-05-05 19:43 51.02765 -0.46024 2976 ft 241 kts 281°
2026-05-05 19:43 51.03025 -0.48591 2982 ft 232 kts 281°
2026-05-05 19:43 51.03443 -0.51031 2966 ft 228 kts 301°
2026-05-05 19:44 51.04501 -0.52831 2964 ft 220 kts 331°
2026-05-05 19:44 51.05844 -0.53676 2973 ft 201 kts 345°
2026-05-05 19:44 51.07187 -0.54281 2980 ft 200 kts 346°
2026-05-05 19:44 51.08528 -0.54822 2972 ft 199 kts 355°
2026-05-05 19:45 51.09840 -0.54361 2969 ft 197 kts 36°
2026-05-05 19:45 51.10615 -0.52602 2982 ft 200 kts 73°
2026-05-05 19:45 51.10837 -0.50410 3003 ft 201 kts 83°
2026-05-05 19:45 51.10956 -0.48251 2988 ft 190 kts 82°
2026-05-05 19:46 51.11113 -0.46315 3006 ft 165 kts 78°
2026-05-05 19:46 51.11314 -0.44511 3009 ft 162 kts 77°
2026-05-05 19:46 51.11538 -0.42792 2976 ft 162 kts 76°
2026-05-05 19:46 51.11777 -0.41030 2827 ft 161 kts 75°
2026-05-05 19:47 51.12014 -0.39311 2623 ft 160 kts 76°
2026-05-05 19:47 51.12254 -0.37569 2408 ft 159 kts 76°
2026-05-05 19:47 51.12487 -0.35881 2195 ft 158 kts 76°
2026-05-05 19:47 51.12722 -0.34180 1976 ft 156 kts 77°
2026-05-05 19:48 51.12954 -0.32497 1758 ft 156 kts 77°
2026-05-05 19:48 51.13178 -0.30872 1561 ft 142 kts 77°
2026-05-05 19:48 51.13376 -0.29438 1387 ft 130 kts 77°
2026-05-05 19:48 51.13568 -0.28040 1192 ft 129 kts 77°
2026-05-05 19:49 51.13754 -0.26665 946 ft 129 kts 77°
2026-05-05 19:49 51.13879 -0.25729 815 ft 130 kts 78°
2026-05-05 19:49 51.14147 -0.23860 615 ft 131 kts 77°
2026-05-05 19:49 51.14334 -0.22451 455 ft 129 kts 76°
2026-05-05 19:50 51.14530 -0.21062 295 ft 129 kts 77°
2026-05-05 19:50 51.14722 -0.19712 214 ft 113 kts 75°
2026-05-05 19:50 51.14861 -0.18703 211 ft 76 kts 77°
2026-05-05 19:50 51.14943 -0.18124 221 ft 35 kts 70°
2026-05-05 19:51 51.15020 -0.17880 218 ft 18 kts 53°
2026-05-05 19:51 51.15074 -0.17771 217 ft 6 kts 34°
2026-05-05 19:51 51.15122 -0.17762 211 ft 8 kts 350°
2026-05-05 19:51 51.15181 -0.17773 218 ft 9 kts 355°
2026-05-05 19:52 51.15227 -0.17784 212 ft 0 kts 349°
2026-05-05 19:54 51.15240 -0.17798 217 ft 4 kts 312°
2026-05-05 19:54 51.15246 -0.17851 210 ft 6 kts 262°
2026-05-05 19:54 51.15235 -0.17929 212 ft 8 kts 258°
2026-05-05 19:55 51.15222 -0.18032 213 ft 11 kts 269°
2026-05-05 19:55 51.15276 -0.18111 210 ft 13 kts 346°
2026-05-05 19:55 51.15368 -0.18142 217 ft 14 kts 347°
2026-05-05 19:55 51.15466 -0.18183 214 ft 14 kts 338°
2026-05-05 19:56 51.15568 -0.18220 210 ft 16 kts 348°
2026-05-05 19:56 51.15614 -0.18236 217 ft 0 kts 348°
2026-05-05 19:57 51.15624 -0.18239 210 ft 3 kts 351°
2026-05-05 19:57 51.15640 -0.18237 214 ft 5 kts 17°
2026-05-05 19:57 51.15674 -0.18156 210 ft 9 kts 77°
2026-05-05 19:57 51.15683 -0.18092 210 ft 9 kts 78°
2026-05-05 19:58 51.15703 -0.17947 210 ft 12 kts 79°
2026-05-05 19:58 51.15727 -0.17874 213 ft 8 kts 19°
2026-05-05 19:58 51.15756 -0.17880 210 ft 0 kts 342°
2026-05-05 19:59 51.15758 -0.17880 210 ft 1 kts 343°
2026-05-05 19:59 51.15772 -0.17886 210 ft 2 kts 346°
2026-05-05 19:59 51.15777 -0.17888 218 ft 1 kts 347°
2026-05-05 20:00 51.15780 -0.17889 215 ft 0 kts 347°